Retour au catalogue

DELTA 1 DEB

ActifLEO
NORAD 18870·DEBRIS·🇺🇸 United States

Lancé Nov 6, 1973 depuis Vandenberg Space Force Base

Loading…

Prochains Passages (prochaines 24 heures)

TLE

FraisSource: Space-Track

Époque: Sep 14, 2026, 00:35 UTC

1 18870U 73086HA  26257.02479741  .00000606  00000-0  70234-2 0  9994
2 18870 101.7708 173.2064 0357789 350.7874   8.6722 11.95526281593671

Suivez DELTA 1 DEB en temps réel avec AllMySat

Download on the App Store